loading
|

WESTFORD NEEDLES, 628

Orbit data source: Space-Track

WESTFORD NEEDLES, 628 is space debris originally from a launch on Thu, 09 May 1963 UTC launched from the Air Force Western Test Range (AFWTR). Debris objects in space refer to the collection of defunct objects orbiting the Earth. Examples of debris include non-operational satellites, rocket bodies, and fragments generated from explosions, collisions, or faulty payload assembly.

Loading next visibility...
Loading greatness...
WESTFORD NEEDLES details
Identifier
628, 1963-014F
Orbit
Active
Last TLE update2 days ago
Origin
Flag of USUSAF SSD (US)
ManufacturerUnknown
Mission statusUnknown
MissionUnknown
Bus & MotorUnknown
Mass~10 kg wet, ~10 kg dry
Launch date (UTC)
1963-05-09 (61 years ago)
Launch vehicleUnknown
Launch site
Air Force Western Test Range (AFWTR)
Object type
Payload
Rocket body
Debris
Radar Cross SectionMedium (>0.1 m² and <1 m²)

Expand to show TLE details & history

TLE from 2 days ago
0 WESTFORD NEEDLES
1 00628U 63014F   24250.06003066  .00000003  00000-0  00000-0 0  9997
2 00628  87.2992 264.9239 0025176  18.3661 341.8097  8.63369381932931
Epoch: 2024-09-06T01:26Z
Definitive object data (Epoch: 2024-09-06T01:26:26.649Z)
Latitude0.00006°
Longitude-102.32513°
Altitude3,637.047 km
Speed6.317 km/s
True Right ascension17h 39m 41s
True Declination0° 00' 00"
Sunlit
Object was in daylight at TLE epoch
Predictive object data (real-time)
Latitude24.07943°
Longitude-101.27834°
Altitude3,636.125 km
Speed6.319 km/s
Apparent Right ascension18h 44m 38s
Apparent Declination0° 00' 15"
Sunlit
Object is in daylight
Predictive observer data (real-time)
Local Sidereal Time08:41:48
Azimuth41.164° NE
Elevation-41.988°
Doppler factor1
Orbital elements
Apogee3,681.957 km
Perigee3,631.43 km
Semi-major axis10,034.831 km
Eccentricity0.0025176
Inclination87.2992°
RAAN264.9239°
Arg. of periapsis18.3661°
True anomaly341.71937°
Mean anomaly341.8097°
Eccentric anomaly341.76456°
Mean motion2.15913 °/min
BSTARUnknown
Period166.73 mins
No data available

WESTFORD NEEDLES Visibility forecast

Observer location: 39.9160978°, -105.1181434

WESTFORD NEEDLES is not visible in the next 10 days
Span
Click to sort rows by Start time (UTC) header in descending order
Start Az.
Max El. time (UTC)
Max El. Az.
Max El.
End time (UTC)
End Az.